TimePST,TemperatureF,Dew PointF,Humidity,Sea Level PressureIn,VisibilityMPH,Wind Direction,Wind SpeedMPH,Gust SpeedMPH,PrecipitationIn,Events,Conditions,WindDirDegrees,DateUTC
12:56 AM,36.9,22.1,55,30.04,10.0,Calm,Calm,-,N/A,,Clear,0,2012-12-31 08:56:00
1:56 AM,34.0,22.1,62,30.07,10.0,Calm,Calm,-,N/A,,Clear,0,2012-12-31 09:56:00
2:56 AM,32.0,22.1,67,30.09,10.0,SSW,6.9,-,N/A,,Clear,200,2012-12-31 10:56:00
3:56 AM,30.0,21.0,69,30.10,10.0,South,6.9,-,N/A,,Clear,190,2012-12-31 11:56:00
4:56 AM,29.1,20.1,69,30.12,10.0,SSW,6.9,-,N/A,,Clear,200,2012-12-31 12:56:00
5:56 AM,30.0,19.0,64,30.16,10.0,Calm,Calm,-,N/A,,Clear,0,2012-12-31 13:56:00
6:56 AM,34.0,16.2,48,30.19,10.0,ENE,6.9,-,N/A,,Clear,60,2012-12-31 14:56:00
7:56 AM,36.0,16.2,45,30.21,10.0,NNE,4.6,-,N/A,,Clear,30,2012-12-31 15:56:00
8:56 AM,38.8,15.1,38,30.24,10.0,NE,10.4,-,N/A,,Clear,40,2012-12-31 16:56:00
9:56 AM,41.0,15.1,35,30.25,10.0,NNE,11.5,-,N/A,,Clear,30,2012-12-31 17:56:00
10:56 AM,43.0,14.0,31,30.23,10.0,NE,11.5,-,N/A,,Clear,50,2012-12-31 18:56:00
11:56 AM,45.0,13.1,28,30.21,10.0,North,15.0,-,N/A,,Clear,10,2012-12-31 19:56:00
12:56 PM,45.0,12.0,26,30.18,10.0,Variable,4.6,-,N/A,,Clear,0,2012-12-31 20:56:00
1:56 PM,45.9,12.0,25,30.19,10.0,NW,5.8,-,N/A,,Clear,310,2012-12-31 21:56:00
4:56 PM,41.0,14.0,33,30.24,10.0,Calm,Calm,-,N/A,,Clear,0,2013-01-01 00:56:00
5:56 PM,36.0,17.1,46,30.25,10.0,Calm,Calm,-,N/A,,Clear,0,2013-01-01 01:56:00
6:56 PM,36.0,15.1,43,30.25,10.0,South,6.9,-,N/A,,Clear,170,2013-01-01 02:56:00
7:56 PM,32.9,16.2,50,30.26,10.0,SSE,8.1,-,N/A,,Clear,160,2013-01-01 03:56:00
8:56 PM,31.1,16.2,54,30.27,10.0,South,6.9,-,N/A,,Clear,180,2013-01-01 04:56:00
9:56 PM,31.1,15.1,52,30.28,10.0,Calm,Calm,-,N/A,,Clear,0,2013-01-01 05:56:00
10:56 PM,30.0,15.1,54,30.30,10.0,South,5.8,-,N/A,,Clear,170,2013-01-01 06:56:00
11:56 PM,28.0,16.2,61,30.29,10.0,Calm,Calm,-,N/A,,Clear,0,2013-01-01 07:56:00